This is the latest recevied weather packets stored in our database for station/object DC1MAK-13. If no packets are shown the sender has not sent any weather packets the latest 10 day(s).
| Time | Temp. | Humidity | Pressure | Rain* | Wind** | Luminosity | Snow |
|---|---|---|---|---|---|---|---|
| 1787751470 | 28.33° C | 48% | 986.9 hPa | - | - | - | - |
| 1787750867 | 28.89° C | 49% | 986.8 hPa | - | - | - | - |
| 1787750560 | 28.33° C | 51% | 986.9 hPa | - | - | - | - |
| 1787750554 | 28.33° C | 51% | 986.9 hPa | - | - | - | - |
| 1787750257 | 27.78° C | 51% | 987 hPa | - | - | - | - |
| 1787750251 | 27.78° C | 51% | 987 hPa | - | - | - | - |
| 1787749953 | 28.89° C | 49% | 987.1 hPa | - | - | - | - |
| 1787749947 | 28.89° C | 49% | 987.1 hPa | - | - | - | - |
| 1787749644 | 28.89° C | 48% | 987 hPa | - | - | - | - |
| 1787749347 | 28.33° C | 50% | 987.1 hPa | - | - | - | - |
| 1787749340 | 28.33° C | 50% | 987.1 hPa | - | - | - | - |
| 1787749047 | 28.89° C | 51% | 987.1 hPa | - | - | - | - |
| 1787749037 | 28.89° C | 51% | 987.1 hPa | - | - | - | - |
| 1787748739 | 28.33° C | 49% | 987.1 hPa | - | - | - | - |
| 1787748733 | 28.33° C | 49% | 987.1 hPa | - | - | - | - |
| 1787748436 | 27.78° C | 50% | 987.3 hPa | - | - | - | - |
| 1787748430 | 27.78° C | 50% | 987.3 hPa | - | - | - | - |
| 1787748132 | 27.78° C | 51% | 987.2 hPa | - | - | - | - |
| 1787748126 | 27.78° C | 51% | 987.2 hPa | - | - | - | - |
| 1787747823 | 27.78° C | 50% | 987.3 hPa | - | - | - | - |
| 1787747527 | 27.78° C | 52% | 987.2 hPa | - | - | - | - |
| 1787747520 | 27.78° C | 52% | 987.2 hPa | - | - | - | - |
| 1787747227 | 26.67° C | 54% | 987.2 hPa | - | - | - | - |
| 1787746919 | 27.22° C | 51% | 987.2 hPa | - | - | - | - |
| 1787746913 | 27.22° C | 51% | 987.2 hPa | - | - | - | - |
* Rain since midnight (hover to see other rain measurements)
** Current wind speed in m/s (hover to see current wind gust speed)